De Queen, AR

2:17 PM CST on November 22, 2019 (GMT -0600)
Helms Sevier County

Weather History for KDEQ - September, 2019

Change the Weather History Date:

Thursday, September 19, 2019

  Actual Average Record
Temperature  
Mean Temperature 82 °F 72 °F  
Max Temperature 93 °F 85 °F 100 °F (1956)
Min Temperature 71 °F 60 °F 40 °F (1981)
Degree Days  
Heating Degree Days 0 0  
Month to date heating degree days 0 0  
Since 1 July heating degree days 0 0  
Cooling Degree Days 18 8  
Month to date cooling degree days 338 211  
Year to date cooling degree days 2056 1803  
Growing Degree Days 32 (Base 50)    
Moisture  
Dew Point 67 °F    
Average Humidity 66    
Maximum Humidity 93    
Minimum Humidity 37    
Precipitation  
Precipitation 0.00 in 0.11 in 4.45 in (1958)
Month to date precipitation 0.03 2.30  
Year to date precipitation 38.19 33.89  
Snow  
Snow 0.00 in - - ()
Month to date snowfall 0.0  
Since 1 July snowfall 0.0  
Since 1 September snowfall 0.0  
Snow Depth 0.00 in    
Sea Level Pressure  
Sea Level Pressure 29.92 in    
Wind  
Wind Speed 6 mph ()    
Max Wind Speed 20 mph    
Max Gust Speed 28 mph    
Visibility 10.0 miles    
Events      
T = Trace of Precipitation, MM = Missing Value Source: Averaged Metar Reports

Daily Weather History Graph

Daily Weather History Graph

Search for Another Location

Airport or City:

Astronomy

Sep. 19, 2019 Rise Set
Actual Time 7:03 AM CDT 7:18 PM CDT
Civil Twilight 6:38 AM CDT 7:43 PM CDT
Nautical Twilight 6:09 AM CDT 8:13 PM CDT
Astronomical Twilight 5:39 AM CDT 8:42 PM CDT
Moon 10:42 PM CDT (9/19) 11:54 AM CDT (9/19)
Length of Visible Light 13h 05m
Length of Day
12h 15m
Waning Gibbous, 74% of the Moon is Illuminated
Sep 19
Waning Gibbous
Sep 21
Last Quarter
Sep 28
New
Oct 5
First Quarter
Oct 13
Full

Hourly Weather History & Observations

Time (CDT) Temp. Heat Index Dew Point Humidity Pressure Visibility Wind Dir Wind Speed Gust Speed Precip Events Conditions
12:53 AM 73.0 °F - 69.1 °F 87% 29.92 in 10.0 mi ESE 4.6 mph - N/A   Clear
1:53 AM 75.9 °F - 70.0 °F 82% 29.92 in 10.0 mi ESE 6.9 mph - N/A   Clear
2:53 AM 73.9 °F - 69.1 °F 85% 29.91 in 10.0 mi East 3.5 mph - N/A   Clear
3:53 AM 73.0 °F - 69.1 °F 87% 29.90 in 10.0 mi East 3.5 mph - N/A   Clear
4:53 AM 71.1 °F - 69.1 °F 93% 29.91 in 10.0 mi Calm Calm - N/A   Clear
5:53 AM 71.1 °F - 68.0 °F 90% 29.92 in 9.0 mi ENE 3.5 mph - N/A   Clear
6:53 AM 71.1 °F - 68.0 °F 90% 29.94 in 10.0 mi East 3.5 mph - N/A   Clear
7:53 AM 73.0 °F - 69.1 °F 87% 29.94 in 10.0 mi ENE 4.6 mph - N/A   Clear
8:53 AM 79.0 °F - 70.0 °F 74% 29.95 in 10.0 mi East 8.1 mph - N/A   Partly Cloudy
9:53 AM 82.0 °F 85.5 °F 69.1 °F 65% 29.96 in 10.0 mi SE 6.9 mph - N/A   Mostly Cloudy
10:53 AM 86.0 °F 89.4 °F 68.0 °F 55% 29.96 in 10.0 mi SE 8.1 mph - N/A   Partly Cloudy
11:53 AM 89.1 °F 92.1 °F 66.9 °F 48% 29.95 in 10.0 mi East 10.4 mph 19.6 mph N/A   Partly Cloudy
12:53 PM 90.0 °F 91.7 °F 64.9 °F 43% 29.94 in 10.0 mi SE 9.2 mph 21.9 mph N/A   Partly Cloudy
1:53 PM 91.9 °F 94.1 °F 64.9 °F 41% 29.91 in 10.0 mi SSE 9.2 mph 19.6 mph N/A   Scattered Clouds
2:53 PM 91.9 °F 92.9 °F 63.0 °F 38% 29.89 in 10.0 mi SE 13.8 mph 21.9 mph N/A   Scattered Clouds
3:53 PM 90.0 °F 90.6 °F 63.0 °F 40% 29.88 in 10.0 mi SSE 9.2 mph 23.0 mph N/A   Partly Cloudy
4:53 PM 91.9 °F 92.5 °F 62.1 °F 37% 29.88 in 10.0 mi SSE 16.1 mph 24.2 mph N/A   Scattered Clouds
6:53 PM 87.1 °F 87.5 °F 62.1 °F 43% 29.90 in 10.0 mi South 15.0 mph 21.9 mph N/A   Clear
7:53 PM 80.1 °F 82.1 °F 66.0 °F 62% 29.92 in 10.0 mi SSE 11.5 mph - N/A   Clear
8:53 PM 77.0 °F - 66.0 °F 69% 29.93 in 10.0 mi SSE 5.8 mph - N/A   Clear
9:53 PM 75.9 °F - 66.0 °F 71% 29.96 in 10.0 mi ESE 6.9 mph - N/A   Clear
11:53 PM 75.9 °F - 64.9 °F 69% 29.96 in 10.0 mi ESE 5.8 mph - N/A   Overcast